{"data":{"norad_id":69329,"intl_designator":"2026-122A","name":"STARLINK-37733","alt_names":[],"object_type":"PAYLOAD","status":"ACTIVE","operator":null,"country":"US","launch_date":"2026-06-03","launch_site_code":"AFWTR","launch_vehicle":null,"mission":null,"orbit_class":"UNKNOWN","rcs_meters":null,"size_class":null,"mass_kg":null,"dimensions":null,"purposes":["comms"],"wikipedia_slug":null,"has_3d_model":false,"image_url":null,"decayed_at":null,"tle_current":{"epoch":"2026-09-19T12:25:03.925920Z","epoch_age_seconds":113942,"freshness":"FRESH","line1":"1 69329U 26122A   26262.51740655  .00002966  00000+0  94126-4 0  9991","line2":"2 69329  97.2830 291.0743 0001607 164.3658 195.7635 15.33458068 16649","mean_motion":15.33458068,"eccentricity":0.0001607,"inclination_deg":97.283,"raan_deg":291.0743,"arg_perigee_deg":164.3658,"mean_anomaly_deg":195.7635,"bstar":9.4126e-5,"rev_number":1664,"period_min":93.905404396099,"perigee_km":464.40452042449,"apogee_km":466.60406673625,"semimajor_km":6843.6412935804,"source":"CELESTRAK","updated_at":"2026-09-20T09:00:44.158907Z"}}}